Location: Temecula
(33.4977°N, 117.1073°W)
Time: 18:45:34
(UTC-07:00)

ISS - Visible Passes

Search period start: 16 May 2021 00:00
Search period end: 26 May 2021 00:00
Orbit: 417 x 422 km, 51.6° (Epoch: 16 May)

Date Brightness Start Highest point End Pass type
(mag) Time Alt. Az. Time Alt. Az. Time Alt. Az.
16 May -1.0 03:16:44 10° NNW 03:19:19 20° NE 03:21:53 10° E visible
16 May -3.2 04:53:04 10° WNW 04:56:11 35° SW 04:59:17 10° SSE visible
16 May -0.5 21:34:40 10° WNW 21:36:48 16° NNW 21:38:57 10° N visible
17 May-0.202:33:43ENE02:33:43ENE02:27:11NNWvisible
17 May -3.9 04:07:12 28° WNW 04:08:48 71° SW 04:12:09 10° SE visible
17 May -1.2 20:46:24 10° W 20:49:12 24° NW 20:52:00 10° NNE visible
19 May -0.2 20:50:39 10° NW 20:51:27 11° NNW 20:52:16 10° NNW visible
